DW2485 Weather Reports


time (UTC)temp
C
wind
direction
speed
KPH
gust
KPH
rain 1hr
cm
rain 24hr
cm
rain mn
cm
humidity
%
barometer
mb
20260905175005 32 31 8.0 14.5 0.00 0.00 0.00 69 1016.3
20260905174504 32 53 4.8 14.5 0.00 0.00 0.00 67 1016.5
20260905172005 32 40 9.7 16.1 0.00 0.00 0.00 68 1016.4
20260905164504 32 26 11.3 16.1 0.00 0.00 0.00 70 1016.9
20260905163005 32 7 8.0 16.1 0.00 0.00 0.00 69 1016.9
20260905162504 32 52 9.7 16.1 0.00 0.00 0.00 68 1016.7
20260905162005 32 56 12.9 19.3 0.00 0.00 0.00 67 1016.7
20260905161004 32 57 11.3 19.3 0.00 0.00 0.00 68 1016.8
20260905160005 31 32 14.5 19.3 0.00 0.00 0.00 69 1016.6
20260905155005 31 24 8.0 14.5 0.00 0.00 0.00 70 1016.6
20260905153005 31 56 9.7 16.1 0.00 0.00 0.00 70 1016.5
20260905152504 31 29 9.7 14.5 0.00 0.00 0.00 71 1016.5
20260905151005 30 32 9.7 14.5 0.00 0.00 0.00 70 1016.5
20260905150004 30 45 12.9 19.3 0.00 0.00 0.00 69 1016.3
20260905145504 30 63 12.9 19.3 0.00 0.00 0.00 70 1016.4
20260905144004 30 52 4.8 9.7 0.00 0.00 0.00 72 1016.3
20260905142504 28 23 12.9 14.5 0.00 0.00 0.00 75 1016.0
20260905142004 28 22 8.0 12.9 0.00 0.00 0.00 78 1016.0
20260905140504 28 31 8.0 8.0 0.00 0.00 0.00 80 1015.8
20260905135004 27 43 3.2 8.0 0.00 0.00 0.00 82 1015.7
20260905134504 27 41 6.4 9.7 0.00 0.00 0.00 83 1015.7
20260905133505 26 41 6.4 9.7 0.00 0.00 0.00 83 1015.6
20260905133005 26 38 4.8 8.0 0.00 0.00 0.00 85 1015.4
20260905131504 25 53 1.6 3.2 0.00 0.00 0.00 89 1015.4
20260905130504 25 53 3.2 4.8 0.00 0.00 0.00 91 1015.3
20260905130005 25 55 3.2 4.8 0.00 0.00 0.00 91 1015.3
20260905125505 24 32 1.6 4.8 0.00 0.00 0.00 93 1015.3
20260905124504 23 29 3.2 4.8 0.00 0.00 0.00 93 1015.2
20260905123504 23 11 3.2 4.8 0.00 0.00 0.00 94 1015.3
20260905121005 22 60 3.2 4.8 0.00 0.00 0.00 95 1015.2
20260905115504 22 355 3.2 3.2 0.00 0.00 0.00 95 1014.8
20260905114505 22 355 3.2 3.2 0.00 0.00 0.00 95 1014.9
20260905114005 22 355 3.2 4.8 0.00 0.00 0.00 95 1015.0
20260905112504 22 34 1.6 3.2 0.00 0.00 0.00 95 1014.4
20260905112005 22 34 1.6 3.2 0.00 0.00 0.00 95 1014.4
20260905111504 22 34 0.0 0.0 0.00 0.00 0.00 95 1014.3
20260905105505 22 34 1.6 1.6 0.00 0.00 0.00 95 1014.0
20260905105004 22 34 1.6 1.6 0.00 0.00 0.00 95 1014.0
20260905104504 22 34 0.0 1.6 0.00 0.00 0.00 95 1014.1
20260905103504 22 34 0.0 0.0 0.00 0.00 0.00 95 1014.0
20260905103004 22 34 0.0 0.0 0.00 0.00 0.00 95 1014.0
20260905102504 22 34 0.0 3.2 0.00 0.00 0.00 95 1014.0
20260905101505 22 34 1.6 1.6 0.00 0.00 0.00 95 1014.1
20260905101004 22 34 1.6 3.2 0.00 0.00 0.00 95 1014.2
20260905100504 22 34 0.0 0.0 0.00 0.00 0.00 94 1014.2
20260905094504 22 34 1.6 1.6 0.00 0.00 0.00 95 1014.4
20260905094004 22 34 1.6 1.6 0.00 0.00 0.00 94 1014.5
20260905093005 23 34 0.0 0.0 0.00 0.00 0.00 94 1014.5
20260905091504 23 34 0.0 3.2 0.00 0.00 0.00 95 1014.6
20260905090004 23 34 1.6 3.2 0.00 0.00 0.00 94 1014.6
20260905085504 23 34 0.0 3.2 0.00 0.00 0.00 94 1014.6
20260905084504 23 34 1.6 1.6 0.00 0.00 0.00 94 1014.6
20260905084004 23 34 0.0 1.6 0.00 0.00 0.00 94 1014.5
20260905081504 23 34 1.6 1.6 0.00 0.00 0.00 94 1014.7
20260905081004 23 34 1.6 1.6 0.00 0.00 0.00 94 1014.7
20260905080504 23 34 0.0 3.2 0.00 0.00 0.00 94 1014.8
20260905080004 23 34 1.6 1.6 0.00 0.00 0.00 94 1014.8
20260905075005 23 34 1.6 1.6 0.00 0.00 0.00 93 1014.8
20260905073504 23 34 0.0 4.8 0.00 0.00 0.00 93 1014.9
20260905071004 23 31 6.4 11.3 0.00 0.00 0.00 94 1014.8
20260905065004 24 60 0.0 1.6 0.00 0.00 0.00 93 1014.7
20260905064504 24 60 1.6 1.6 0.00 0.00 0.00 93 1014.7
20260905064004 24 60 1.6 3.2 0.00 0.00 0.00 92 1014.6
20260905063504 24 60 0.0 1.6 0.00 0.00 0.00 92 1014.7
20260905063004 24 60 1.6 1.6 0.00 0.00 0.00 92 1014.8
20260905062004 24 60 1.6 3.2 0.00 0.00 0.00 93 1015.0
20260905061503 24 61 3.2 9.7 0.00 0.00 0.00 93 1015.0
20260905060504 23 15 4.8 4.8 0.00 0.00 0.00 92 1015.0
20260905054503 24 131 0.0 3.2 0.00 0.00 0.00 91 1014.8
20260905053504 24 131 0.0 0.0 0.00 0.00 0.00 92 1014.7
20260905052503 24 131 0.0 0.0 0.00 0.00 0.00 91 1014.5
20260905051503 25 131 1.6 3.2 0.00 0.00 0.00 90 1014.5
20260905051004 25 131 1.6 3.2 0.00 0.00 0.00 89 1014.5
20260905050503 25 67 1.6 4.8 0.00 0.00 0.00 89 1014.6
20260905045504 25 92 3.2 4.8 0.00 0.00 0.00 88 1014.7
20260905044504 25 83 3.2 8.0 0.00 0.00 0.00 87 1014.8
20260905044004 26 80 4.8 11.3 0.00 0.00 0.00 87 1014.8
20260905043503 25 49 9.7 14.5 0.00 0.00 0.00 87 1014.8
20260905043005 25 62 8.0 11.3 0.00 0.00 0.00 88 1014.7
20260905042005 25 55 8.0 11.3 0.00 0.00 0.00 88 1014.6
20260905041506 25 71 4.8 8.0 0.00 0.00 0.00 88 1014.6
20260905041006 25 76 4.8 4.8 0.00 0.00 0.00 89 1014.5
20260905040506 25 93 4.8 4.8 0.00 0.00 0.00 88 1014.6
20260905040005 25 88 4.8 4.8 0.00 0.00 0.00 89 1014.7
20260905035005 25 94 3.2 3.2 0.00 0.00 0.00 88 1014.6
20260905034505 25 94 1.6 3.2 0.00 0.00 0.00 88 1014.6
20260905033006 25 86 6.4 9.7 0.00 0.00 0.00 88 1014.5
20260905032505 25 88 4.8 4.8 0.00 0.00 0.00 88 1014.5
20260905031505 25 83 4.8 4.8 0.00 0.00 0.00 88 1014.4
20260905031005 25 72 4.8 4.8 0.00 0.00 0.00 88 1014.4
20260905025506 26 59 3.2 3.2 0.00 0.00 0.00 86 1014.2
20260905025006 26 0 1.6 3.2 0.00 0.00 0.00 86 1014.2
20260905024006 26 13 4.8 11.3 0.00 0.00 0.00 85 1014.0
20260905023505 26 15 8.0 12.9 0.00 0.00 0.00 85 1014.0
20260905022505 26 3 6.4 8.0 0.00 0.00 0.00 85 1013.8
20260905020006 27 218 4.8 9.7 0.00 0.00 0.00 82 1013.0
20260905015505 27 202 6.4 12.9 0.00 0.00 0.00 83 1012.9
20260905015005 27 204 4.8 9.7 0.00 0.00 0.00 83 1012.9
20260905014005 27 207 4.8 11.3 0.00 0.00 0.00 84 1012.9
20260905012006 27 200 4.8 4.8 0.00 0.00 0.00 84 1013.0
20260905011505 27 201 4.8 4.8 0.00 0.00 0.00 82 1013.1
20260905011005 27 249 3.2 3.2 0.00 0.00 0.00 84 1013.4
20260905010506 27 249 0.0 1.6 0.00 0.00 0.00 82 1013.5
20260905005505 28 249 3.2 3.2 0.00 0.00 0.00 83 1013.6
20260905005006 28 249 1.6 3.2 0.00 0.00 0.00 82 1013.6
20260905004505 28 249 0.0 1.6 0.00 0.00 0.00 82 1013.8
20260905004005 28 249 1.6 4.8 0.00 0.00 0.00 82 1013.9
20260905001005 30 283 1.6 3.2 0.00 0.00 0.00 76 1014.0
20260905000505 30 283 1.6 3.2 0.00 0.00 0.00 76 1014.2
20260904235505 30 275 1.6 3.2 0.00 0.00 0.00 75 1014.2
20260904234505 31 216 1.6 3.2 0.00 0.00 0.00 71 1014.1
20260904234006 31 255 1.6 3.2 0.00 0.00 0.00 71 1014.1
20260904233505 31 245 0.0 3.2 0.00 0.00 0.00 71 1014.0
20260904232506 31 245 0.0 1.6 0.00 0.00 0.00 69 1013.9
20260904230005 32 235 3.2 8.0 0.00 0.00 0.00 66 1013.9
20260904225005 32 253 4.8 11.3 0.00 0.00 0.00 64 1014.0
20260904224505 33 237 4.8 8.0 0.00 0.00 0.00 63 1013.9
20260904224005 33 223 6.4 8.0 0.00 0.00 0.00 62 1013.9
20260904223505 33 212 3.2 12.9 0.00 0.00 0.00 63 1013.5
20260904223006 33 207 8.0 11.3 0.00 0.00 0.00 62 1013.4
20260904222505 33 189 9.7 16.1 0.00 0.00 0.00 60 1013.4
20260904221506 33 190 8.0 19.3 0.00 0.00 0.00 60 1013.1
20260904220005 33 196 14.5 20.9 0.00 0.00 0.00 59 1013.2
20260904215005 34 207 11.3 16.1 0.00 0.00 0.00 59 1013.0
20260904214505 34 190 12.9 19.3 0.00 0.00 0.00 58 1013.0
20260904213005 34 192 14.5 22.5 0.00 0.00 0.00 56 1013.1
20260904212505 34 186 16.1 24.1 0.00 0.00 0.00 56 1013.1
20260904212005 35 199 14.5 20.9 0.00 0.00 0.00 59 1013.0
20260904211505 34 177 14.5 22.5 0.00 0.00 0.00 57 1013.0
20260904211005 35 180 16.1 22.5 0.00 0.00 0.00 57 1012.8
20260904205504 35 191 12.9 24.1 0.00 0.00 0.00 57 1012.8
20260904204005 35 188 14.5 20.9 0.00 0.00 0.00 55 1012.8
20260904203005 35 186 14.5 27.4 0.00 0.00 0.00 56 1012.9
20260904201505 35 174 14.5 22.5 0.00 0.00 0.00 55 1013.2
20260904200505 35 193 9.7 22.5 0.00 0.00 0.00 55 1013.4
20260904200005 35 206 11.3 24.1 0.00 0.00 0.00 54 1013.4
20260904195005 35 183 14.5 24.1 0.00 0.00 0.00 55 1013.4
20260904192005 33 214 9.7 14.5 0.00 0.00 0.00 59 1014.0
20260904191505 33 193 9.7 16.1 0.00 0.00 0.00 61 1014.1
20260904190005 33 198 8.0 12.9 0.00 0.00 0.00 60 1014.2
20260904185005 33 214 8.0 12.9 0.00 0.00 0.00 59 1014.4
20260904183505 33 216 4.8 12.9 0.00 0.00 0.00 61 1014.5
20260904182505 32 213 11.3 16.1 0.00 0.00 0.00 59 1014.6
20260904175505 33 216 11.3 19.3 0.00 0.00 0.00 59 1014.6